Location: Dealu Mare
(46.0500°N, 22.8167°E)
Time: 09:25:55
(UTC+00:00)

Cosmos 1500 Rocket - Pass Details

Date: 15 January 2026
Orbit: 597 x 623 km, 82.5° (Epoch: 9 February)

Event Time Altitude Azimuth Distance (km) Brightness Sun altitude
Rises 04:34:08 0° 203° (SSW) 2,849 6.9 -15.7°
Reaches altitude 10° 04:36:24 10° 210° (SSW) 1,955 6.0 -15.3°
Maximum altitude 04:40:34 45° 283° (WNW) 835 3.8 -14.6°
Drops below altitude 10° 04:44:48 10° 357° (N) 1,986 6.0 -13.9°
Sets 04:47:07 0° 4° (N) 2,900 6.9 -13.5°
